Tracking 30696 objects as of 15-Jun-2025
HD Live streaming from Space Station
objects crossing your sky now

AGILA

Track AGILA now!


NORAD ID: 62456
Int'l Code: 2024-252C
Perigee: 29,425.9 km
Apogee: 51,139.6 km
Inclination: 0.6 °
Period: 1,671.4 minutes
Semi major axis: 46653 km
RCS: Unknown
Launch date: December 29, 2024
Source: United Kingdom (UK)
Launch site: AIR FORCE EASTERN TEST RANGE (AFETR)
Your satellite tracking list
Your tracking list is empty




NASA's NSSDC Master Catalog

Two Line Element Set (TLE):
1 62456U 24252C   25162.63864115 -.00000125  00000-0  00000-0 0  9997
2 62456   0.6372 316.2703 2327120 230.7616  78.3958  0.86153529  1478
Source of the keplerian elements: AFSPC